Flag for Ireland Weather past 2 weeks in Galway, Ireland

Now
50 °F

Broken clouds.


Feels Like: 45 °F
Forecast: 46 / 55 °F
Wind: 15 mph from Northwest

Location: Shannon Airport

Current Time: May 29, 2015 at 10:19:56 AM

Latest Report: May 29, 2015 at 10:00 AM


Visibility: N/A

Pressure: 29.83 "Hg

Humidity: 71%

Dew point: 41 °F

Location of GalwayLocation

Historic Weather in Galway — Graph

°F

Galway temperature yesterday

Maximum temperature yesterday: 55 °F (at 12:30 PM)
Minimum temperature yesterday: 46 °F (at 3:00 AM)
Average temperature yesterday: 50 °F

Past Weeks' High & Low Weather Summary

 TemperatureHumidityPressure
High64 °F (May 23, 3:30 PM)100% (May 15, 4:30 PM)30.42 "Hg (May 15, 4:30 PM)
Low43 °F (May 19, 12:30 AM)54% (May 16, 11:30 AM)29.62 "Hg (May 18, 5:00 PM)
Average52 °F81%30.13 "Hg
* Reported May 14 9:00 AM — May 29 9:00 AM, Galway, Weather by CustomWeather, © 2015

Note: Actual official high and low records may vary slightly from our data, if they occured in-between our weather recording intervals... More about our weather records

Advertising

Galway weather history for previous 24 hours

 ConditionsComfort  
Time TempWeatherWind HumidityBarometerVisibility
9:00 AM
Fri, May 29
50 °FScattered clouds.16 mph76%29.80 "HgN/A
8:30 AM48 °FPassing clouds.16 mph82%29.80 "HgN/A
8:00 AM48 °FScattered clouds.15 mph82%29.80 "HgN/A
7:30 AM46 °FPassing clouds.13 mph87%29.80 "HgN/A
7:00 AM46 °FPassing clouds.10 mph93%29.77 "HgN/A
6:30 AM46 °FSprinkles. Passing clouds.13 mph93%29.77 "HgN/A
6:00 AM46 °FCool.13 mph93%29.77 "Hg0 mi
5:30 AM46 °FPartly cloudy.10 mph93%29.77 "HgN/A
5:00 AM46 °FPartly cloudy.10 mph93%29.77 "HgN/A
4:30 AM46 °FPartly cloudy.7 mph100%29.74 "HgN/A
4:00 AM46 °FLight rain. Passing clouds.9 mph93%29.77 "HgN/A
3:30 AM48 °FPassing clouds.13 mph94%29.74 "HgN/A
3:00 AM48 °FPassing clouds.10 mph94%29.77 "HgN/A
2:30 AM46 °FRain. Passing clouds.5 mph100%29.77 "HgN/A
2:00 AM48 °FRain. Passing clouds.13 mph94%29.77 "Hg5 mi
1:30 AM48 °FRain. Passing clouds.8 mph94%29.77 "Hg5 mi
1:00 AM48 °FRain. Mostly cloudy.9 mph94%29.80 "HgN/A
12:30 AM48 °FLight rain. Passing clouds.6 mph94%29.83 "HgN/A
11:00 PM
Thu, May 28
48 °FLight rain. Partly cloudy.9 mph87%29.89 "HgN/A
10:30 PM50 °FLight rain. Broken clouds.12 mph76%29.89 "HgN/A
10:00 PM50 °FBroken clouds.10 mph76%29.92 "HgN/A
9:30 PM50 °FBroken clouds.10 mph76%29.92 "HgN/A
9:00 PM48 °FBroken clouds.10 mph87%29.92 "HgN/A
8:30 PM48 °FBroken clouds.13 mph87%29.95 "HgN/A
8:00 PM48 °FSprinkles. Broken clouds.15 mph87%29.95 "HgN/A
7:30 PM52 °FSprinkles. Broken clouds.16 mph67%29.95 "HgN/A
7:00 PM52 °FBroken clouds.16 mph67%29.95 "HgN/A
6:30 PM54 °FBroken clouds.17 mph58%29.98 "HgN/A
6:00 PM54 °FBroken clouds.16 mph63%29.98 "HgN/A
5:30 PM55 °FBroken clouds.18 mph55%29.98 "HgN/A
5:00 PM54 °FBroken clouds.14 mph63%30.01 "HgN/A
4:30 PM54 °FSprinkles. Broken clouds.20 mph63%30.01 "HgN/A
4:00 PM54 °FBroken clouds.18 mph63%30.01 "HgN/A
3:30 PM54 °FBroken clouds.18 mph63%30.01 "HgN/A
3:00 PM54 °FBroken clouds.20 mph58%30.01 "HgN/A
2:30 PM54 °FBroken clouds.17 mph67%30.01 "HgN/A
2:00 PM54 °FBroken clouds.16 mph67%30.01 "HgN/A
1:30 PM54 °FSprinkles. Broken clouds.18 mph67%30.01 "HgN/A
1:00 PM54 °FBroken clouds.20 mph67%30.01 "HgN/A
12:30 PM55 °FBroken clouds.18 mph59%30.01 "HgN/A
12:00 PM52 °FBroken clouds.18 mph72%30.04 "HgN/A
11:30 AM54 °FBroken clouds.17 mph67%30.01 "HgN/A
11:00 AM54 °FBroken clouds.18 mph67%30.01 "HgN/A
10:30 AM52 °FBroken clouds.17 mph72%30.01 "HgN/A
10:00 AM50 °FBroken clouds.17 mph76%30.04 "HgN/A
Weather by CustomWeather, © 2015

See weather overviewHow to use our weather pages